Tracking 35331 objects as of 15-Sep-2026
HD Live streaming from Space Station
objects crossing your sky now

STARLINK-32155

Track STARLINK-32155 now!
10-day predictions
STARLINK-32155 is classified as:


NORAD ID: 60274
Int'l Code: 2024-131V
Launch date: July 27, 2024
Source: United States (US)
Launch site: AIR FORCE EASTERN TEST RANGE (AFETR)
Your satellite tracking list
Your tracking list is empty




NASA's NSSDC Master Catalog

Two Line Element Set (TLE):
1 60274U 24131V   26258.49228629 -.00000106  00000-0  83412-5 0  9996
2 60274  53.1596 249.7278 0001429  69.5829 290.5326 15.31702885120699
Source of the keplerian elements: AFSPC